Terug naar catalogus

STARLINK-31972

ActiefCommunicatieVLEO
NORAD 59923·PAYLOAD·🇺🇸 United States

Gelanceerd Jun 1, 2024 vanaf Cape Canaveral Space Force Station

Loading…

Volgende Passages (komende 24 uur)

TLE

VersSource: CelesTrak SupGP

Epoch: Sep 14, 2026, 22:11 UTC

1 59923C 24106B   26257.92479167 -.00021912  00000+0 -79390-3 0  2572
2 59923  43.0015 343.9243 0001663 276.2064  48.9412 15.27578412    15

Volg STARLINK-31972 in realtime met AllMySat

Download on the App Store